Location: Chmeln�
(49.6483°N, 14.9871°E)
Time: 02:22:53
(UTC+00:00)

Meteor 1-24 Rocket - Pass Details

Date: 18 September 2020
Orbit: 790 x 927 km, 81.2° (Epoch: 24 October)

Event Time Altitude Azimuth Distance (km) Brightness Sun altitude
Rises 19:05:11 0° 351° (N) 3,341 7.3 -19.4°
Reaches altitude 10° 19:07:37 10° 356° (N) 2,421 6.5 -19.7°
Maximum altitude 19:12:58 52° 73° (ENE) 1,038 3.9 -20.5°
Enters shadow 19:14:23 41° 117° (ESE) 1,197 4.0 -20.7°
